Flag for Switzerland Weather past 2 weeks in Delémont, Jura, Switzerland

Now
44 °F

Quite cool.


Feels Like: 36 °F
Forecast: 32 / 63 °F
Wind: 18 mph from East

Location: Grenchen

Current Time: Apr 19, 2015 at 3:22:25 AM

Latest Report: Apr 19, 2015 at 2:00 AM


Visibility: N/A

Pressure: 30.11 "Hg

Humidity: 52%

Dew point: 28 °F

Location of DelémontLocation

Historic Weather in Delémont — Graph

°F

Delémont temperature yesterday

Maximum temperature yesterday: 54 °F (at 3:00 PM)
Minimum temperature yesterday: 45 °F (at 8:00 AM)
Average temperature yesterday: 50 °F

Past Weeks' High & Low Weather Summary

 TemperatureHumidityPressure
High73 °F (Apr 15, 5:00 PM)100% (Apr 10, 7:00 AM)30.60 "Hg (Apr 10, 7:00 AM)
Low28 °F (Apr 7, 7:00 AM)23% (Apr 8, 3:00 PM)29.85 "Hg (Apr 4, 5:00 PM)
Average49 °F69%30.27 "Hg
* Reported Apr 4 2:00 AM — Apr 19 2:00 AM, Delémont, Weather by CustomWeather, © 2015

Note: Actual official high and low records may vary slightly from our data, if they occured in-between our weather recording intervals... More about our weather records

Advertising

Delémont weather history for previous 24 hours

 ConditionsComfort  
Time TempWeatherWind HumidityBarometerVisibility
2:00 AM
Sun, Apr 19
44 °FQuite cool.18 mph52%30.11 "HgN/A
1:00 AM45 °FQuite cool.16 mph51%30.11 "HgN/A
12:00 AM45 °FCool.16 mph50%30.12 "HgN/A
11:00 PM
Sat, Apr 18
46 °FCool.16 mph50%30.13 "HgN/A
10:00 PM46 °FCool.14 mph55%30.15 "HgN/A
9:00 PM45 °FCool.12 mph57%30.15 "HgN/A
8:00 PM48 °FCool.15 mph50%30.14 "HgN/A
7:00 PM52 °FCool.18 mph44%30.13 "HgN/A
6:00 PM53 °FCool.21 mph44%30.13 "HgN/A
5:00 PM54 °FCool.18 mph45%30.12 "HgN/A
4:00 PM54 °FCool.20 mph49%30.14 "HgN/A
3:00 PM54 °FCool.18 mph54%30.14 "HgN/A
2:00 PM54 °FCool.18 mph57%30.14 "HgN/A
1:00 PM53 °FCool.18 mph60%30.16 "HgN/A
12:00 PM51 °FCool.21 mph62%30.17 "HgN/A
11:00 AM49 °FCool.17 mph70%30.16 "HgN/A
10:00 AM47 °FCool.16 mph72%30.15 "HgN/A
9:00 AM46 °FCool.15 mph78%30.14 "HgN/A
8:00 AM45 °FQuite cool.13 mph87%30.14 "HgN/A
7:00 AM46 °FCool.10 mph91%30.12 "HgN/A
6:00 AM47 °FCool.9 mph91%30.10 "HgN/A
5:00 AM47 °FCool.7 mph93%30.10 "HgN/A
4:00 AM47 °FCool.13 mph92%30.09 "HgN/A
3:00 AM51 °FCool.2 mph99%30.06 "HgN/A
Weather by CustomWeather, © 2015

See weather overviewHow to use our weather pages